• In Italy
  • List of Countries
  • For 7 days
  • Water Temperature
  • Satellite Maps
  • Weather Map
  • Weather Widgets
  • user-avatar
    Login

    Hourly Weather Shaki

    Today, 20 October, Saturday

    Time Temperature Precipitation Wind Pressure Humidity
    00:00 +16°C° 0 mm 2 mps 738 mmHg 80%
    01:00 +16°C° 0 mm 1 mps 738 mmHg 80%
    02:00 +16°C° 0 mm 1 mps 738 mmHg 81%
    03:00 +15°C° 0 mm 1 mps 737 mmHg 81%
    04:00 +15°C° 0 mm 1 mps 737 mmHg 80%
    05:00 +15°C° 0 mm 1 mps 737 mmHg 79%
    06:00 +15°C° 0 mm 1 mps 737 mmHg 78%
    07:00 +18°C° 0 mm 1 mps 737 mmHg 70%
    08:00 +19°C° 0 mm 1 mps 737 mmHg 62%
    09:00 +20°C° 0 mm 2 mps 737 mmHg 52%
    10:00 +21°C° 0 mm 2 mps 736 mmHg 47%
    11:00 +23°C° 0 mm 2 mps 736 mmHg 42%
    12:00 +24°C° 0 mm 2 mps 736 mmHg 37%
    13:00 +25°C° 0 mm 2 mps 735 mmHg 36%
    14:00 +25°C° 0 mm 2 mps 735 mmHg 36%
    15:00 +25°C° 0 mm 1 mps 735 mmHg 35%
    16:00 +23°C° 0 mm 1 mps 735 mmHg 40%
    17:00 +22°C° 0 mm 1 mps 735 mmHg 45%
    18:00 +20°C° 0 mm 1 mps 735 mmHg 50%
    19:00 +20°C° 0 mm 1 mps 735 mmHg 50%
    20:00 +20°C° 0 mm 1 mps 735 mmHg 51%
    21:00 +19°C° 0 mm 1 mps 735 mmHg 51%
    22:00 +19°C° 0 mm 1 mps 735 mmHg 51%
    23:00 +19°C° 0 mm 1 mps 735 mmHg 51%

    Tomorrow, 21 October, Sunday

    Time Temperature Precipitation Wind Pressure Humidity
    00:00 +18°C° 0 mm 1 mps 735 mmHg 52%
    01:00 +18°C° 0 mm 1 mps 735 mmHg 51%
    02:00 +18°C° 0 mm 1 mps 735 mmHg 51%
    03:00 +18°C° 0 mm 1 mps 735 mmHg 50%
    04:00 +16°C° 0 mm 1 mps 735 mmHg 48%
    05:00 +16°C° 0 mm 1 mps 735 mmHg 46%
    06:00 +16°C° 0 mm 1 mps 735 mmHg 44%
    07:00 +19°C° 0 mm 1 mps 735 mmHg 40%
    08:00 +21°C° 0 mm 1 mps 735 mmHg 35%
    09:00 +23°C° 0 mm 1 mps 736 mmHg 31%
    10:00 +24°C° 0 mm 1 mps 736 mmHg 30%
    11:00 +25°C° 0 mm 2 mps 735 mmHg 29%
    12:00 +26°C° 0 mm 2 mps 735 mmHg 28%
    13:00 +26°C° 0 mm 1 mps 735 mmHg 28%
    14:00 +26°C° 0 mm 1 mps 735 mmHg 28%
    15:00 +26°C° 0 mm 1 mps 735 mmHg 28%
    16:00 +24°C° 0 mm 1 mps 735 mmHg 32%
    17:00 +23°C° 0 mm 1 mps 735 mmHg 36%
    18:00 +21°C° 0 mm 1 mps 735 mmHg 39%
    19:00 +21°C° 0 mm 1 mps 735 mmHg 39%
    20:00 +20°C° 0 mm 1 mps 736 mmHg 39%
    21:00 +19°C° 0 mm 2 mps 736 mmHg 39%
    22:00 +20°C° 0 mm 1 mps 736 mmHg 39%
    23:00 +19°C° 0 mm 1 mps 736 mmHg 39%

    Day after tomorrow, 22 October, Monday

    Time Temperature Precipitation Wind Pressure Humidity
    00:00 +19°C° 0 mm 1 mps 736 mmHg 39%
    01:00 +19°C° 0 mm 1 mps 736 mmHg 39%
    02:00 +18°C° 0 mm 1 mps 736 mmHg 39%
    03:00 +18°C° 0 mm 1 mps 736 mmHg 39%
    04:00 +18°C° 0 mm 1 mps 736 mmHg 39%
    05:00 +18°C° 0 mm 1 mps 736 mmHg 39%
    06:00 +18°C° 0 mm 1 mps 736 mmHg 39%
    07:00 +20°C° 0 mm 1 mps 736 mmHg 37%
    08:00 +21°C° 0 mm 1 mps 736 mmHg 35%
    09:00 +22°C° 0 mm 1 mps 736 mmHg 32%
    10:00 +23°C° 0 mm 2 mps 736 mmHg 31%
    11:00 +24°C° 0 mm 2 mps 736 mmHg 29%
    12:00 +25°C° 0 mm 2 mps 736 mmHg 27%
    13:00 +25°C° 0 mm 2 mps 736 mmHg 28%
    14:00 +26°C° 0 mm 2 mps 736 mmHg 28%
    15:00 +26°C° 0 mm 2 mps 736 mmHg 28%
    16:00 +24°C° 0 mm 2 mps 736 mmHg 32%
    17:00 +23°C° 0 mm 1 mps 736 mmHg 36%
    18:00 +21°C° 0 mm 1 mps 736 mmHg 40%
    19:00 +21°C° 0 mm 1 mps 736 mmHg 41%
    20:00 +20°C° 0 mm 1 mps 737 mmHg 42%
    21:00 +20°C° 0 mm 1 mps 737 mmHg 43%
    22:00 +19°C° 0 mm 1 mps 737 mmHg 42%
    23:00 +19°C° 0 mm 1 mps 737 mmHg 42%

    23 October, Tuesday

    Time Temperature Precipitation Wind Pressure Humidity
    00:00 +19°C° 0 mm 1 mps 737 mmHg 41%
    01:00 +18°C° 0 mm 1 mps 737 mmHg 41%
    02:00 +18°C° 0 mm 1 mps 737 mmHg 40%
    03:00 +18°C° 0 mm 1 mps 737 mmHg 40%
    04:00 +18°C° 0 mm 1 mps 737 mmHg 42%
    05:00 +16°C° 0 mm 1 mps 737 mmHg 43%
    06:00 +16°C° 0 mm 1 mps 737 mmHg 45%
    07:00 +19°C° 0 mm 1 mps 737 mmHg 42%
    08:00 +20°C° 0 mm 1 mps 737 mmHg 40%
    09:00 +22°C° 0 mm 1 mps 737 mmHg 37%
    10:00 +23°C° 0 mm 1 mps 736 mmHg 35%
    11:00 +24°C° 0 mm 2 mps 736 mmHg 34%
    12:00 +25°C° 0 mm 2 mps 735 mmHg 32%
    13:00 +25°C° 0 mm 2 mps 735 mmHg 31%
    14:00 +25°C° 0 mm 2 mps 735 mmHg 31%
    15:00 +25°C° 0 mm 2 mps 734 mmHg 30%
    16:00 +23°C° 0 mm 2 mps 734 mmHg 33%
    17:00 +21°C° 0 mm 2 mps 734 mmHg 36%
    18:00 +20°C° 0 mm 2 mps 735 mmHg 38%
    19:00 +19°C° 0 mm 2 mps 735 mmHg 38%
    20:00 +19°C° 0 mm 2 mps 735 mmHg 38%
    21:00 +19°C° 0 mm 2 mps 735 mmHg 38%
    22:00 +18°C° 0 mm 2 mps 735 mmHg 40%
    23:00 +18°C° 0 mm 2 mps 735 mmHg 42%

    24 October, Wednesday

    Time Temperature Precipitation Wind Pressure Humidity
    00:00 +17°C° 0 mm 2 mps 735 mmHg 44%
    01:00 +17°C° 0 mm 3 mps 734 mmHg 43%
    02:00 +17°C° 0 mm 3 mps 734 mmHg 43%
    03:00 +17°C° 0 mm 3 mps 734 mmHg 42%
    04:00 +17°C° 0 mm 3 mps 734 mmHg 41%
    05:00 +17°C° 0 mm 3 mps 734 mmHg 40%
    06:00 +16°C° 0 mm 3 mps 734 mmHg 38%
    07:00 +18°C° 0 mm 3 mps 734 mmHg 36%
    08:00 +20°C° 0 mm 2 mps 734 mmHg 33%
    09:00 +23°C° 0 mm 2 mps 734 mmHg 30%
    10:00 +24°C° 0 mm 2 mps 734 mmHg 29%
    11:00 +25°C° 0 mm 3 mps 733 mmHg 28%
    12:00 +26°C° 0 mm 3 mps 733 mmHg 27%
    13:00 +26°C° 0 mm 2 mps 732 mmHg 27%
    14:00 +26°C° 0 mm 2 mps 732 mmHg 27%
    15:00 +26°C° 0 mm 2 mps 731 mmHg 27%
    16:00 +24°C° 0 mm 2 mps 731 mmHg 30%
    17:00 +21°C° 0 mm 2 mps 731 mmHg 33%
    18:00 +21°C° 0 mm 1 mps 731 mmHg 37%
    19:00 +20°C° 0 mm 1 mps 730 mmHg 39%
    20:00 +19°C° 0 mm 2 mps 730 mmHg 40%
    21:00 +19°C° 0 mm 2 mps 730 mmHg 42%
    22:00 +18°C° 0 mm 2 mps 729 mmHg 44%
    23:00 +18°C° 0 mm 2 mps 729 mmHg 47%

    25 October, Thursday

    Time Temperature Precipitation Wind Pressure Humidity
    00:00 +18°C° 0 mm 2 mps 728 mmHg 49%
    01:00 +18°C° 0 mm 2 mps 727 mmHg 49%
    02:00 +17°C° 0 mm 2 mps 727 mmHg 49%
    03:00 +17°C° 0 mm 2 mps 726 mmHg 48%
    04:00 +17°C° 0 mm 2 mps 726 mmHg 48%
    05:00 +17°C° 0 mm 2 mps 726 mmHg 48%
    06:00 +18°C° 0 mm 2 mps 726 mmHg 48%
    07:00 +19°C° 0 mm 3 mps 726 mmHg 45%
    08:00 +21°C° 0 mm 4 mps 726 mmHg 43%
    09:00 +23°C° 0 mm 4 mps 726 mmHg 40%
    10:00 +25°C° 0 mm 5 mps 725 mmHg 36%
    11:00 +26°C° 0 mm 5 mps 725 mmHg 33%
    12:00 +27°C° 0 mm 5 mps 724 mmHg 30%
    13:00 +27°C° 0 mm 5 mps 724 mmHg 30%
    14:00 +28°C° 0 mm 5 mps 724 mmHg 30%
    15:00 +28°C° 0 mm 5 mps 723 mmHg 31%
    16:00 +26°C° 0 mm 4 mps 723 mmHg 34%
    17:00 +23°C° 0 mm 4 mps 724 mmHg 37%
    18:00 +22°C° 0 mm 3 mps 724 mmHg 40%
    19:00 +21°C° 0 mm 3 mps 724 mmHg 41%
    20:00 +21°C° 0 mm 3 mps 724 mmHg 42%
    21:00 +21°C° 0 mm 3 mps 724 mmHg 42%
    22:00 +21°C° 0 mm 2 mps 725 mmHg 42%
    23:00 +20°C° 0 mm 2 mps 725 mmHg 42%
    Show more